Wind_Speed
40 41 43 44 45 46 47 48 48 48 48 48 48 48 48 48 48 48 48 49 48 48 48 48 48 48 49 49 49 49 49 50 50 51 51 52 52 52
40 41 42 44 44 46 47 48 48 48 48 49 49 48 49 49 49 50 50 49 50 49 49 50 50 50 50 51 52 51 51 51 51 52 52 53 53 53
41 42 44 44 45 45 47 48 48 48 48 48 49 50 50 51 51 51 51 51 51 51 51 51 51 51 52 52 52 52 52 53 54 54 53 54 54 54
41 42 42 43 43 45 46 47 47 47 47 48 49 49 50 52 52 52 51 51 52 52 52 53 53 53 53 53 53 53 54 55 55 55 55 54 55 55
40 41 41 42 42 42 43 45 45 46 47 48 48 49 50 50 51 51 51 52 52 53 53 53 54 54 54 55 55 55 56 56 56 56 56 56 56 56
40 41 42 41 42 42 42 43 44 45 46 47 47 48 49 49 50 50 51 52 52 52 52 53 54 54 55 56 56 57 57 56 56 56 56 57 57 58
41 41 42 42 41 42 42 43 44 44 44 45 46 46 48 48 49 49 50 51 51 51 52 53 54 54 55 56 57 57 57 56 56 56 57 57 58 59
40 40 41 42 42 42 42 42 43 43 43 43 45 46 48 48 49 49 50 50 51 52 52 52 54 55 55 56 56 57 56 56 56 57 57 58 59 59
38 39 40 41 42 42 42 42 42 42 42 43 45 45 47 48 49 50 50 50 50 51 52 52 53 54 55 55 56 55 55 55 56 57 57 58 59 59
37 38 39 40 40 41 41 41 41 41 42 43 44 45 46 48 48 49 49 49 49 50 52 52 52 52 53 53 54 54 54 55 55 56 57 58 59 58
36 37 38 38 39 39 40 40 40 41 42 42 43 45 46 47 47 47 48 48 48 49 50 51 51 51 52 52 53 53 53 54 54 56 56 57 57 57
35 36 36 37 38 39 40 41 41 42 42 42 43 44 44 45 45 46 47 47 48 48 49 50 50 51 50 50 51 52 53 53 54 55 55 55 55 53
35 35 36 37 38 39 40 41 41 42 42 42 42 42 43 44 44 45 45 46 47 48 49 49 49 50 50 50 50 51 52 52 52 52 52 52 51 51
34 35 36 36 37 38 39 40 40 40 40 41 41 41 42 43 43 44 44 45 47 47 48 48 49 50 50 50 49 49 49 49 50 50 49 49 49 49
34 34 35 35 36 36 37 37 38 38 39 40 40 41 41 42 43 43 44 45 46 46 46 47 47 48 49 49 48 48 48 48 48 48 47 47 47 47
34 34 34 35 35 35 36 37 37 38 38 38 39 39 40 41 42 42 42 43 43 44 45 45 45 45 45 45 45 45 45 45 45 45 45 46 46 47
32 33 33 34 35 35 35 36 37 38 38 38 38 39 39 40 40 40 40 41 42 43 44 44 44 43 43 42 42 42 42 43 43 44 44 44 46 46
32 32 33 33 34 35 36 36 37 37 37 37 37 38 38 39 39 38 39 40 41 41 42 42 42 42 41 40 41 41 41 41 42 42 43 43 42 42
32 32 33 33 33 34 34 35 36 36 36 36 37 37 37 38 38 38 39 40 40 40 40 40 40 39 39 38 38 38 38 38 39 39 39 39 38 37
32 33 33 33 34 34 34 34 34 35 35 35 36 36 36 37 37 38 38 38 37 37 37 37 37 37 37 37 36 36 36 36 36 37 36 36 35 35
33 33 33 34 34 34 34 34 34 34 35 35 35 35 36 36 36 36 36 36 35 35 35 35 35 35 35 34 34 35 35 36 36 35 35 34 34 33
33 33 33 34 34 34 34 34 34 34 35 35 35 35 36 35 35 35 35 35 34 34 35 35 35 35 34 33 33 34 35 35 34 34 34 33 32 32
33 33 33 33 33 33 33 33 34 34 35 35 35 35 35 35 34 34 35 35 35 35 35 35 35 34 33 33 33 34 34 33 32 32 32 32 31 30
Wind_Direction
255 254 253 252 253 254 253 254 254 252 252 253 255 256 257 257 259 260 261 262 263 265 266 267 268 270 271 274 275 277 279 280 282 283 283 284 285 286
256 255 254 253 253 255 255 255 255 255 254 254 256 257 258 258 259 260 260 262 263 265 266 267 269 271 272 274 276 277 278 280 281 282 284 285 286 286
255 255 256 255 253 255 255 255 255 256 257 256 256 257 258 259 260 261 261 263 264 265 266 268 269 271 273 274 276 277 278 279 280 281 283 285 286 287
254 255 255 254 253 255 255 255 256 257 258 257 257 257 258 259 260 261 262 263 265 266 267 269 270 271 273 274 276 278 279 280 281 281 282 283 285 286
254 254 254 254 254 255 256 257 257 258 259 259 258 258 259 259 260 261 262 264 265 267 269 270 271 272 274 275 276 278 279 280 280 280 281 282 284 285
255 255 255 256 256 257 258 258 258 259 260 259 259 259 259 260 260 262 263 264 266 268 270 271 271 273 275 275 277 277 278 279 279 280 281 282 283 285
256 256 256 257 258 258 259 259 261 261 261 261 260 261 260 260 261 263 264 265 266 269 271 271 272 274 275 275 276 277 277 278 279 279 281 282 284 284
256 256 256 256 256 258 260 261 262 263 263 262 261 262 261 262 262 264 266 267 268 269 271 273 274 275 276 277 278 277 277 278 279 280 281 283 284 285
258 256 255 256 256 258 259 262 263 264 264 263 264 264 264 264 264 265 267 268 270 271 272 274 275 277 278 279 278 278 278 278 279 281 282 284 284 285
259 258 257 257 257 258 259 261 263 263 264 265 266 266 266 266 267 268 269 270 271 272 274 275 276 277 278 279 279 279 279 279 280 281 283 285 285 286
260 260 260 259 259 259 260 262 263 263 265 267 268 268 268 268 269 270 271 272 272 273 275 277 277 278 278 278 279 279 280 280 280 281 283 285 286 286
261 260 261 261 262 262 262 263 264 265 267 268 268 269 270 270 271 272 272 273 274 275 275 277 278 279 279 278 279 280 281 281 281 282 283 285 286 286
262 262 262 262 263 265 266 267 267 267 267 268 269 270 271 272 273 274 274 276 276 277 277 278 279 280 280 280 281 282 282 283 282 283 284 285 286 286
264 264 264 265 266 268 269 270 269 269 268 269 270 271 273 273 274 275 276 277 278 279 280 281 281 281 281 282 282 283 284 283 284 283 284 285 287 288
268 267 267 266 268 269 271 272 272 273 272 272 272 273 274 274 275 276 277 278 279 278 280 281 282 282 281 282 283 284 285 285 285 285 285 287 288 289
268 268 269 268 269 271 273 274 274 275 275 274 274 274 275 276 276 277 277 279 279 280 281 283 283 283 284 283 284 285 286 287 287 287 288 289 289 289
269 270 270 271 271 272 274 275 276 276 275 275 274 275 276 277 277 277 278 278 280 282 283 284 284 284 284 284 285 286 287 288 288 288 288 290 290 290
270 271 273 274 273 273 274 274 275 275 275 275 275 275 275 276 277 277 278 279 281 282 284 284 284 284 284 284 285 287 288 289 289 290 291 292 292 291
273 273 274 274 274 274 274 274 274 274 275 276 276 275 275 276 277 278 279 280 281 282 284 284 284 284 285 285 286 287 288 289 290 292 293 293 292 291
275 275 274 274 274 274 274 274 274 275 276 276 276 275 276 277 278 279 280 280 281 283 284 284 285 285 285 286 286 288 289 290 291 292 293 293 292 292
276 276 275 275 274 274 274 274 274 275 276 276 276 277 277 278 279 279 280 280 281 283 284 285 286 286 285 285 287 290 291 292 292 293 293 293 292 292
276 276 276 276 276 276 275 275 275 275 276 276 277 277 278 278 279 280 280 280 281 282 284 284 285 286 286 287 289 291 293 293 293 293 294 293 293 292
277 277 277 276 276 275 275 276 276 276 276 276 276 276 277 277 278 279 280 280 280 282 283 285 285 285 286 287 290 292 293 293 293 294 294 294 294 294
Height
5671 5674 5676 5679 5682 5684 5687 5690 5693 5697 5701 5704 5706 5708 5710 5712 5714 5716 5717 5719 5720 5721 5722 5723 5723 5724 5724 5723 5722 5722 5720 5719 5718 5716 5714 5712 5710 5707
5660 5663 5666 5668 5670 5673 5675 5678 5680 5684 5687 5691 5693 5695 5697 5699 5701 5703 5704 5705 5707 5708 5709 5709 5710 5710 5710 5710 5709 5708 5707 5706 5704 5703 5700 5698 5695 5693
5650 5652 5655 5657 5659 5661 5663 5666 5668 5671 5674 5678 5680 5682 5684 5686 5688 5689 5691 5692 5693 5694 5695 5696 5696 5696 5696 5696 5695 5694 5693 5691 5690 5689 5686 5684 5681 5678
5639 5641 5643 5645 5648 5650 5652 5654 5657 5659 5661 5664 5667 5669 5671 5672 5674 5676 5677 5678 5680 5681 5681 5682 5682 5682 5682 5681 5681 5679 5678 5677 5675 5674 5672 5669 5666 5663
5628 5630 5632 5634 5636 5638 5641 5643 5645 5647 5649 5651 5654 5656 5658 5659 5661 5662 5664 5665 5666 5667 5667 5667 5667 5667 5667 5666 5665 5664 5663 5662 5660 5658 5656 5654 5651 5647
5618 5620 5622 5624 5626 5628 5630 5631 5633 5635 5637 5639 5641 5643 5645 5646 5647 5649 5651 5652 5653 5653 5653 5653 5653 5653 5652 5651 5650 5649 5647 5645 5644 5642 5640 5638 5635 5632
5608 5610 5611 5613 5615 5617 5619 5620 5622 5623 5625 5626 5628 5630 5632 5633 5635 5636 5637 5638 5639 5639 5639 5639 5639 5638 5637 5635 5634 5632 5631 5629 5628 5626 5624 5621 5619 5616
5597 5599 5601 5603 5604 5606 5608 5609 5611 5612 5613 5615 5617 5618 5619 5620 5622 5623 5624 5625 5626 5626 5625 5625 5624 5623 5621 5620 5618 5616 5614 5613 5611 5610 5608 5605 5603 5599
5587 5588 5590 5592 5594 5595 5597 5598 5599 5600 5602 5603 5604 5605 5606 5608 5609 5610 5610 5611 5612 5611 5610 5611 5610 5608 5606 5604 5602 5600 5598 5596 5595 5593 5592 5589 5586 5583
5576 5578 5580 5582 5583 5584 5586 5587 5588 5590 5590 5591 5593 5593 5593 5594 5595 5596 5596 5597 5598 5597 5595 5596 5595 5593 5592 5589 5586 5584 5582 5581 5579 5578 5575 5573 5570 5567
5567 5568 5570 5571 5573 5574 5575 5577 5578 5578 5579 5579 5580 5580 5581 5581 5582 5582 5583 5583 5583 5583 5581 5580 5580 5578 5576 5574 5571 5569 5567 5565 5563 5562 5559 5557 5554 5551
5557 5558 5560 5561 5562 5563 5564 5565 5567 5567 5568 5568 5568 5568 5568 5568 5568 5568 5568 5568 5568 5569 5567 5566 5564 5563 5562 5560 5557 5554 5552 5550 5548 5546 5544 5541 5538 5535
5548 5549 5550 5550 5552 5552 5553 5554 5554 5555 5555 5556 5556 5556 5556 5556 5556 5555 5555 5554 5554 5554 5553 5552 5550 5548 5547 5546 5543 5540 5538 5535 5533 5531 5528 5526 5523 5520
5538 5539 5540 5540 5541 5541 5542 5542 5543 5543 5543 5544 5544 5544 5544 5544 5544 5543 5542 5541 5541 5540 5539 5537 5536 5534 5532 5531 5529 5527 5524 5521 5519 5517 5514 5511 5509 5506
5528 5529 5530 5530 5531 5531 5531 5531 5531 5531 5531 5532 5532 5532 5532 5532 5531 5531 5530 5529 5528 5527 5525 5524 5522 5520 5518 5517 5515 5513 5511 5508 5505 5503 5501 5498 5495 5492
5519 5519 5520 5520 5520 5520 5520 5520 5520 5520 5520 5520 5520 5520 5520 5520 5519 5518 5518 5516 5515 5514 5512 5510 5508 5507 5505 5502 5501 5499 5497 5495 5493 5490 5488 5484 5481 5478
5509 5510 5510 5510 5510 5510 5510 5510 5509 5509 5509 5509 5509 5509 5508 5508 5507 5507 5506 5504 5503 5502 5500 5498 5496 5494 5492 5490 5488 5486 5484 5482 5479 5477 5475 5472 5468 5464
5500 5500 5500 5500 5500 5499 5499 5499 5499 5498 5498 5498 5498 5497 5497 5497 5496 5495 5494 5493 5492 5490 5488 5486 5484 5482 5480 5478 5476 5474 5472 5469 5467 5465 5462 5459 5456 5452
5490 5490 5489 5489 5489 5489 5489 5488 5488 5488 5487 5487 5486 5486 5486 5485 5485 5484 5482 5481 5480 5478 5476 5474 5472 5471 5469 5467 5464 5462 5460 5458 5455 5453 5450 5447 5444 5441
5479 5479 5479 5479 5479 5478 5478 5478 5477 5477 5476 5476 5475 5475 5474 5474 5473 5472 5471 5470 5468 5467 5465 5463 5461 5460 5458 5457 5454 5451 5448 5447 5445 5442 5439 5436 5434 5431
5470 5469 5469 5468 5468 5468 5467 5467 5467 5467 5466 5465 5465 5464 5464 5463 5462 5461 5460 5459 5457 5456 5455 5453 5451 5449 5447 5446 5444 5442 5439 5436 5434 5431 5429 5427 5425 5422
5459 5459 5458 5457 5457 5457 5457 5456 5456 5456 5455 5455 5454 5453 5453 5452 5451 5450 5449 5448 5447 5446 5444 5443 5441 5439 5438 5436 5434 5432 5429 5426 5423 5420 5418 5416 5414 5412
5449 5448 5448 5447 5447 5447 5446 5446 5446 5445 5445 5444 5443 5443 5442 5441 5440 5439 5438 5437 5436 5435 5434 5432 5431 5429 5427 5426 5424 5422 5420 5417 5414 5411 5408 5405 5403 5401